Cloud_Cover
0 3 0 1 27 38 100 100 100 31 100 100 100 95 78 63 66 87 61 52 87 64 89 49 92 44 98 100 100 93 95 54 27 11 14 19 12 0 0 0 10 10 3 2 6 0 0 0 0
0 0 0 3 69 5 54 100 100 94 48 100 100 100 100 100 100 70 70 84 99 52 41 55 11 42 14 86 18 69 98 100 84 0 0 0 0 0 0 0 0 6 13 8 11 0 0 0 0
0 0 0 0 5 12 33 93 100 77 81 24 61 28 51 69 74 54 99 84 46 82 98 79 79 40 22 8 6 19 74 100 100 12 1 0 11 15 11 11 5 2 0 3 0 0 0 0 0
0 0 4 5 33 74 97 100 100 79 7 16 40 50 87 86 89 100 100 100 100 100 98 100 100 89 15 1 0 0 0 2 96 100 13 24 47 21 9 2 16 66 31 98 76 6 1 0 0
0 0 0 55 94 100 100 87 43 5 13 22 94 41 5 72 100 100 100 100 100 100 100 92 96 40 6 5 0 0 0 0 7 98 94 14 26 9 0 0 0 0 2 9 2 0 0 0 0
0 0 0 39 100 100 100 98 100 17 31 10 5 5 5 52 99 100 98 100 97 100 100 100 100 28 1 0 2 5 0 17 44 58 27 0 39 40 0 0 0 0 0 0 0 0 0 0 0
0 2 4 6 97 100 100 100 100 9 50 40 5 82 100 100 100 100 100 100 74 36 61 12 5 3 4 4 1 1 0 0 0 1 17 0 0 0 0 0 0 0 0 0 0 0 0 0 0
0 0 0 0 15 81 100 100 48 2 5 3 21 100 96 100 100 61 72 33 27 78 17 1 4 2 0 0 0 0 0 0 0 0 0 0 0 0 0 0 0 0 0 0 0 0 0 0 0
0 0 1 0 1 61 97 40 0 1 4 11 100 100 80 5 8 6 88 100 68 72 12 5 3 0 0 0 0 0 0 0 0 0 0 0 0 0 0 0 0 0 0 0 0 0 0 0 0
0 0 0 2 1 8 1 0 0 52 16 22 54 33 58 61 100 68 72 5 6 34 5 0 0 0 0 0 0 0 0 0 0 0 0 5 1 2 0 0 0 0 0 0 0 0 0 0 0
0 0 0 1 0 0 0 0 3 5 17 81 100 100 100 100 99 24 16 0 0 0 0 0 0 0 0 0 0 0 0 0 5 5 4 4 5 2 5 5 5 2 5 4 1 0 0 0 0
4 0 0 0 4 2 0 0 0 5 5 14 93 100 67 11 0 0 0 0 0 0 0 0 0 0 0 0 4 5 5 2 5 5 0 2 5 5 5 5 5 3 5 5 5 4 0 0 0
0 3 0 2 5 5 4 1 3 1 10 11 52 31 4 0 0 0 0 0 0 0 0 0 0 0 0 0 1 5 5 5 5 5 4 4 2 1 0 5 5 3 5 5 5 5 5 4 0
2 2 4 2 3 1 3 0 4 2 0 2 16 8 0 0 0 0 0 0 0 0 2 5 5 5 5 5 5 5 5 5 6 15 5 5 5 5 5 5 4 3 0 2 2 5 5 5 1
8 5 5 5 5 5 3 1 3 2 5 0 0 0 0 0 0 0 5 5 5 15 30 50 77 19 89 23 21 13 5 5 5 22 5 5 10 5 5 5 5 5 5 4 2 3 5 1 1
97 6 5 81 8 31 49 29 0 0 0 0 0 0 0 0 0 0 5 6 42 20 64 57 47 48 35 74 63 45 5 52 67 39 27 26 18 6 5 5 4 4 5 3 2 5 5 49 7
100 5 56 68 5 6 5 6 96 2 0 3 1 0 0 0 0 5 5 5 7 85 33 43 84 100 100 86 12 31 43 58 44 23 38 85 86 31 46 6 5 5 5 5 5 5 5 5 12
100 95 22 99 31 57 61 5 47 81 6 4 60 0 0 0 3 4 5 5 31 8 22 24 100 100 100 97 90 97 93 76 82 87 54 29 50 30 6 99 93 9 5 5 21 6 5 5 5
100 100 66 59 100 67 33 75 79 100 43 12 99 55 5 66 76 5 5 5 5 5 7 5 83 14 85 100 92 100 88 32 52 44 42 32 81 89 10 5 11 74 5 17 58 74 98 67 7
89 100 100 66 100 76 100 47 100 100 99 32 84 52 12 100 100 100 100 89 100 98 99 96 92 100 100 100 100 100 100 64 91 67 13 5 5 5 5 32 6 82 27 98 100 69 96 95 100
100 100 100 100 100 100 100 100 100 95 100 98 100 34 81 100 100 100 100 100 100 100 100 100 100 100 100 100 67 88 99 100 69 91 6 5 5 5 5 38 5 5 6 5 5 9 29 5 10
78 100 100 100 100 100 100 100 100 100 100 100 100 100 98 100 100 100 100 100 100 100 100 100 100 100 100 100 100 100 100 100 99 100 97 32 55 69 30 7 5 5 63 5 5 5 9 27 31
100 100 100 100 100 100 100 100 100 100 100 100 100 100 100 100 100 100 100 100 100 100 100 100 84 71 100 100 79 100 100 100 100 100 100 100 98 94 26 49 54 100 100 43 84 88 100 100 100
94 100 100 100 100 100 100 100 100 100 100 100 100 100 100 100 100 100 100 100 100 100 100 100 64 100 97 85 89 77 100 100 100 100 100 100 100 100 100 100 100 100 99 91 100 100 100 100 100
100 100 100 100 100 100 100 100 100 100 100 100 100 100 100 100 100 100 100 100 100 98 99 100 86 97 88 8 8 70 75 100 100 100 100 100 84 93 100 85 100 57 100 100 100 100 100 100 100
100 100 100 100 100 100 100 100 100 100 100 100 100 100 100 100 100 100 100 79 99 100 60 80 95 100 52 62 98 98 100 100 100 100 100 100 100 42 28 25 67 100 100 100 100 100 100 100 100
100 100 100 100 100 100 100 100 100 100 100 100 100 100 100 100 100 100 100 76 92 98 100 100 100 100 81 100 100 100 100 100 100 99 35 11 64 78 74 98 100 33 86 100 100 100 100 100 100
100 100 100 100 100 100 100 100 100 100 100 98 92 86 100 100 100 100 100 100 100 100 100 76 94 100 100 100 99 95 99 75 40 32 85 97 84 81 95 100 95 77 97 100 100 100 100 100 100
100 100 100 100 100 100 100 100 100 100 100 100 100 100 100 100 100 100 100 100 100 100 100 100 100 100 100 99 100 76 84 99 100 100 100 100 100 98 100 100 100 100 100 100 100 100 100 100 100
100 100 100 100 100 100 100 100 100 100 100 99 100 100 100 100 100 100 100 100 100 100 100 100 100 100 100 100 86 100 100 100 100 100 100 100 100 100 100 100 100 100 100 100 100 100 100 90 70